Home > Weather > Changsha > Past weeks

Flag for China Weather for the Past 2 Weeks in Changsha, Hunan, China

Now
48 °F

Sunny.


Feels Like: 48 °F
Forecast: 51 / 69 °F
Wind: 1 mph from Southwest

Location: Changsha

Current Time: Feb 9, 2016 at 10:39:51 AM

Latest Report: Feb 9, 2016 at 9:00 AM


Visibility: 10 mi

Pressure: 30.15 "Hg

Humidity: 62%

Dew point: 36 °F

Location of ChangshaLocation

Historic Weather in Changsha — Graph

°F

Changsha Temperature Yesterday

Maximum temperature yesterday: 70 °F (at 3:00 PM)
Minimum temperature yesterday: 28 °F (at 7:00 AM)
Average temperature yesterday: 49 °F

High & Low Weather Summary for the Past Weeks

 TemperatureHumidityPressure
High70 °F (Feb 8, 3:00 PM)100% (Jan 28, 5:00 AM)30.74 "Hg (Jan 28, 5:00 AM)
Low27 °F (Jan 25, 9:00 AM)15% (Jan 25, 4:00 PM)30.09 "Hg (Feb 8, 6:00 PM)
Average41 °F73%30.36 "Hg
* Reported Jan 25 9:00 AM — Feb 9 9:00 AM, Changsha, Weather by CustomWeather, © 2016

Note: Actual official high and low records may vary slightly from our data, if they occured in-between our weather recording intervals... More about our weather records

Advertising

Changsha Weather History for the Previous 24 Hours

 ConditionsComfort  
Time TempWeatherWind HumidityBarometerVisibility
9:00 AM
Tue, Feb 9
48 °FSunny.1 mph62%30.15 "Hg10 mi
8:00 AM43 °FClear.1 mph81%30.12 "Hg6 mi
7:00 AM41 °FClear.1 mph76%30.09 "Hg5 mi
6:00 AM41 °FClear.1 mph87%30.09 "Hg4 mi
5:00 AM43 °FClear.1 mph81%30.09 "Hg4 mi
4:00 AM45 °FClear.1 mph81%30.09 "Hg4 mi
3:00 AM45 °FClear.1 mph76%30.09 "Hg4 mi
2:00 AM45 °FClear.1 mph81%30.09 "Hg4 mi
1:00 AM45 °FClear.1 mph76%30.12 "Hg4 mi
12:00 AM43 °FClear.1 mph87%30.12 "Hg4 mi
11:00 PM
Mon, Feb 8
43 °FClear.1 mph87%30.12 "Hg4 mi
10:00 PM45 °FClear.1 mph76%30.12 "Hg6 mi
9:00 PM46 °FClear.1 mph66%30.12 "Hg10 mi
8:00 PM48 °FClear.1 mph62%30.12 "Hg10 mi
7:00 PM54 °FClear.1 mph54%30.09 "Hg10 mi
6:00 PM63 °FSunny.3 mph24%30.09 "Hg10 mi
5:00 PM70 °FSunny.8 mph18%30.12 "Hg10 mi
4:00 PM70 °FPassing clouds.10 mph15%30.12 "HgN/A
3:00 PM70 °FPassing clouds.8 mph17%30.12 "HgN/A
2:00 PM68 °FClear.8 mph21%30.15 "Hg6 mi
1:00 PM68 °FClear.6 mph20%30.21 "Hg6 mi
12:00 PM64 °FClear.6 mph26%30.24 "Hg5 mi
11:00 AM57 °FClear.8 mph33%30.27 "Hg4 mi
10:00 AM50 °FHaze.1 mph58%30.27 "Hg2 mi
Weather by CustomWeather, © 2016

See weather overviewHow to use our weather pages